Погода в Сеяхе

Погода в Сеяхе : погода сейчас, прогноз погоды и архив. Всё, что Вы хотите узнать о погоде в Сеяхе!

Хотите узнать прогноз погоды в Сеяхе? Тогда Вам сюда: Погода в Сеяхе

Поиск расширенной информации на нашем сайте:

Другие новости

Новости СМИ2

Главная страница сайта

Новости сайта

03.07.2017

Напоминаем, что на нашем специализированном сайте Метеоцентр.Азия вы можете получить высокодетализированные автоматические прогнозы погоды по пунктам России, СНГ и мира в авиационном формате (включающие направление и скорость ветра, видимость, явления погоды, количество и форму облачности, нижнюю и верхнюю границу облачности).

Рекомендуем: Оптовым покупателям женские халаты оптом от нашего лучшего отечественного Российского производителя

Погода в Сеяхе - сегодня

Время (UTC), дата Ветер
(°,м/с) 
Видим.   Явления Облачность Т
(°С)
Тd
(°С)
f(%) Тe
(°С)
Pmin
(гПа)
dP
(гПа)
Po
(мм)
O2
(г/м3)
Тmin Tmax R s Состояние
почвы
12 17.10.17 120 (ЮВ) 20000 м  {туман}  9/9 630 м 
[Sc]
-4.5 -5.9 90 -8  1014.6  -1.6  759  312           
15 17.10.17 120 (ЮВ) 7{10}  20000 м    10/10 700 м 
[Sc]
-4.2 -7 81 -9  1013  -1.6  758  311    -3.9       
18 17.10.17 120 (ЮВ) 9-12{13}  20000 м    10/10 540 м 
[Sc]
-4.7 -6.6 87 -10  1010.9  -2.1  756  311           
21 17.10.17 110 (В) 8-12{13}  20000 м    10/10 270 м 
[St]
-4.3 -5.8 89 -9  1009  -1.9  755  310           
00 18.10.17 100 (В) 10-14{15}  20000 м    10/10 270 м 
[St]
-4.6 -5.9 91 -11  1007.1  -1.9  754  310           
03 18.10.17 100 (В) 9-13{16}  20000 м    10/10 240 м 
[St]
-4.4 -5.6 91 -10  1005.6  -1.6  752  309  -4.9      сухой снег
10-40% 
06 18.10.17 100 (В) 8-12{14}  4000 м  слаб. снег  10/10 240 м 
[Ns]
-2.8 -3.8 93 -8  1003.8  -1.8  751  306           
09 18.10.17 110 (В) 9-12{13}  2000 м  снег  10/10 240 м 
[Ns]
-1.2 -1.7 96 -6  1001.8  -2  750  304           
12 18.10.17 130 (ЮВ) 10-13{14}  20000 м  в посл. час снег  10/10 210 м 
[St]
+0.4 +0 97 -4  999.4  -2.3  748  301           
15 18.10.17 150 (ЮВ) 9-13{15}  20000 м    10/10 240 м 
[St]
+0.9 -0.1 93 -3  997.1  -2.4  746  300    +0.9     
18 18.10.17 160 (Ю) 11-15{15}  20000 м    9/9 330 м 
[St]
+1 -0.6 89 -4  995  -2  745  299           
21 18.10.17 160 (Ю) 10-14{16}  4000 м  слаб. снег  10/10 270 м 
[Ns]
+0.2 -0.4 96 -5  992.7  -2.3  743  299           
00 19.10.17 180 (Ю) 8-14{18}  20000 м  {снег}  10/10 240 м 
[St]
+0 -0.6 96 -4  990.9  -1.8  741  299           
03 19.10.17 200 (Ю) 6-11{14}  20000 м    10/10 150 м 
[St]
+0.3 -0.2 96 -3  990.9  -0.1  742  298  -0.2    0.2     
06 19.10.17 210 (ЮЗ) 6-11{13}  20000 м    10/10 240 м 
[St]
+0.7 -0.2 94 -3  992.2  1.3  743  298           
09 19.10.17 200 (Ю) 5{11}  20000 м    10/10 240 м 
[St]
+0.9 -0.2 92 -2  993.6  1.4  744  299           
12 19.10.17 190 (Ю) 20000 м  {снег}  10/10 270 м 
[St]
+0.7 -0.1 94 -2  994.7  1.1  744  299           
15 19.10.17 210 (ЮЗ) 6-10{12}  20000 м    10/10 270 м 
[St]
+0.6 -0.6 92 -3  995.8  1.1  745  300    +0.9       
18 19.10.17 200 (Ю) 4{11}  20000 м    10/10 270 м 
[St]
+0 -0.6 96 -2  996.5  0.7  746  301           
21 19.10.17 190 (Ю) 20000 м    10/10 270 м 
[St]
+0.2 -0.4 96 -3  997.1  0.6  746  300           
03 20.10.17 180 (Ю) 8/00 м    10/0 
+0.3 -0.2 96 -2  998  0.9  747  301  -0.1         
06 20.10.17 180 (Ю) 20000 м    10/10 240 м 
[St]
+0.4 -0.3 95 -1  998.8  0.8  747  301           
09 20.10.17 160 (Ю) 10 км  слаб. снег  10/10 360 м 
[Ns]
+0.4 -0.1 96 -1  999.2  0.4  748  301           
12 20.10.17 140 (ЮВ) 20000 м  {снег}  10/10 330 м 
[St]
+0.2 -0.3 96 -3  999.9  0.6  748  301           
15 20.10.17 130 (ЮВ) 20000 м    9/8 300 м средняя 
[Cu med, cong|Ac trans]
-0.3 -0.6 98 -3  999.8  0.1  748  302    +0.5  0.2     
Время (UTC), дата Ветер
(°,м/с) 
Видим.   Явления Облачность Т
(°С)
Тd
(°С)
f(%) Тe
(°С)
Pmin
(гПа)
dP
(гПа)
Po
(мм)
O2
(г/м3)
Тmin Tmax R s Состояние
почвы

Для получения пояснительной информации подведите курсор к названию столбца.

ПОГОДА в Сеяхе - архив

Всё, что Вы хотите узнать о погоде в Сеяхе - удобно и подробно!

Выберите нужную дату (начиная с 1 января 2015* года) и нажмите кнопку "Найти".
Будут отображены архивные сводки погоды по пункту Сеяха, начиная с указанной даты.


Отображать данные в формате CSV (для использования в таблицах Excel)


Внимание! Наш архив погоды предназначен исключительно для личного некоммерческого использования в познавательных целях. Если Вам необходимы официальные справки о состоянии погоды (для производственных, юридических, коммерческих и т.п. целей), обращайтесь в органы Росгидромета.

*Примечание: данная дата относится к архиву по метеостанциям СССР (Россия, СНГ, Балтия).
Архив по метеостанциям Зарубежной Европы и Азии (кроме Китая) хранится 10 дней, по другим регионам земного шара (Китай, Африка, Америка, Австралия, Океания) - 1 день.

Сеяха - район местоположения метеостанции


Название, широта, долгота, высота метеостанции:
Сеяха 70.2°ш. 72.5°д. 16 м над ур. моря [Российская Федерация]

Дополнительная информация

В oтличие oт бoльшинства пoгoдных сайтoв мы публикуем пoдрoбную метеoинфoрмацию в детальнoм прoфессиoнальнoм фoрмате.

Характеристики температуры и влажнoсти вoздуха измеряются на высoте 2 м в тени вдали oт зданий и деревьев.
Скoрoсть ветра измеряется на высoте 10 м (на урoвне рoста челoвека скoрoсть ветра ниже в 1.5-2 раза). Если метеoстанция нахoдится в гoрoде или в лесу, тo скoрoсть ветра занижена на 2-4 м/с пo сравнению с oткрытым местoм. Скoрoсть ветра над акватoриями крупных рек и oзёр, а также на вершинах хoлмoв на 2-5 м/с выше, чем в oбычных услoвиях.
Атмoсфернoе давление в разных тoчках местнoсти мoжет значительнo oтличаться oт давления на метеoстанции, в зависимoсти oт услoвий рельефа (при пoдъёме на 10 м давление пoнижается примернo на 1 мм рт.ст.).